Location: Ellerstadt
(49.4644°N, 8.2615°E)
Time: 21:06:15
(UTC+00:00)

Vanguard 1 - Pass Details

Date: 17 June 2021
Orbit: 651 x 3831 km, 34.2° (Epoch: 29 July)

Event Time Altitude Azimuth Distance (km) Brightness Sun altitude
Rises 01:35:44 0° 267° (W) 7,097 14.1 -11.8°
Reaches altitude 10° 01:41:46 10° 260° (W) 5,571 13.5 -11.3°
Maximum altitude 01:53:54 31° 207° (SSW) 2,950 11.9 -10.2°
Drops below altitude 10° 02:01:25 10° 149° (SSE) 3,382 12.6 -9.6°
Sets 02:04:06 0° 138° (SE) 4,029 13.1 -9.3°
